Newport, NC

1:32 AM EST on December 10, 2016 (GMT -0500)
Bogue McAlf

Weather History for KNJM - December, 2012

Change the Weather History Date:

Saturday, December 29, 2012

  Actual Average (KNKT) Record (KNKT)
Temperature  
Mean Temperature 48 °F -  
Max Temperature 53 °F 53 °F 77 °F (2015)
Min Temperature 44 °F 33 °F 24 °F (2010)
Degree Days  
Heating Degree Days 16    
Moisture  
Dew Point 44 °F    
Average Humidity 87    
Maximum Humidity 100    
Minimum Humidity 63    
Precipitation  
Precipitation 1.05 in - - ()
Sea Level Pressure  
Sea Level Pressure 29.75 in    
Wind  
Wind Speed 7 mph (NNW)    
Max Wind Speed 15 mph    
Max Gust Speed 26 mph    
Visibility 7 miles    
Events Rain    
Averages and records for this station are not official NWS values.
T = Trace of Precipitation, MM = Missing Value Source: NWS Daily Summary

Daily Weather History Graph

Daily Weather History Graph

Search for Another Location

Airport or City:

Trip Planner

Search our weather history database for the weather conditions in past years. The results will help you decide how hot, cold, wet, or windy it might be!

Date:

Astronomy

Dec. 29, 2012 Rise Set
Actual Time 7:14 AM EST 5:06 PM EST
Civil Twilight 6:46 AM EST 5:34 PM EST
Nautical Twilight 6:15 AM EST 6:05 PM EST
Astronomical Twilight 5:44 AM EST 6:36 PM EST
Moon 6:33 PM EST (12/29) 7:50 AM EST (12/29)
Length of Visible Light 10h 47m
Length of Day
9h 51m
Full, 98% of the Moon is Illuminated
Dec 29
Full
Jan 4
Last Quarter
Jan 11
New
Jan 18
First Quarter
Jan 26
Full

Hourly Weather History & Observations

Time (EST) Temp. Windchill Dew Point Humidity Pressure Visibility Wind Dir Wind Speed Gust Speed Precip Events Conditions
12:57 AM 44.1 °F 41.5 °F 32.0 °F 63% 30.00 in 10.0 mi NE 4.6 mph - N/A   Overcast
1:57 AM 44.1 °F 40.1 °F 33.1 °F 65% 29.95 in 10.0 mi ENE 6.9 mph - N/A   Overcast
2:57 AM 46.0 °F 42.5 °F 37.0 °F 71% 29.93 in 10.0 mi ENE 6.9 mph - N/A   Overcast
3:57 AM 48.0 °F - 39.9 °F 74% 29.90 in 10.0 mi NE 5.8 mph - 0.00 in   Overcast
4:57 AM 46.9 °F - 43.0 °F 86% 29.85 in 3.0 mi NNE 4.6 mph - 0.02 in Rain Rain
5:06 AM 46.4 °F 43.5 °F 42.8 °F 87% 29.81 in 2.0 mi NE 5.8 mph - 0.05 in Rain Heavy Rain
5:25 AM 46.4 °F 42.9 °F 44.6 °F 93% 29.80 in 4.0 mi NE 6.9 mph - 0.10 in Rain Light Rain
5:39 AM 46.4 °F 42.4 °F 44.6 °F 93% 29.78 in 10.0 mi NE 8.1 mph - 0.10 in Rain Light Rain
5:57 AM 48.0 °F - 46.0 °F 93% 29.78 in 9.0 mi NE 10.4 mph - 0.11 in Rain Light Rain
6:26 AM 46.4 °F 40.4 °F 46.4 °F 100% 29.77 in 2.5 mi NNW 13.8 mph - 0.07 in Rain Heavy Rain
6:30 AM 46.4 °F 41.9 °F 46.4 °F 100% 29.78 in 3.0 mi North 9.2 mph - 0.09 in Rain Heavy Rain
6:57 AM 46.9 °F - 46.0 °F 97% 29.76 in 4.0 mi North 6.9 mph - 0.22 in Rain Heavy Rain
7:20 AM 46.4 °F 41.1 °F 44.6 °F 93% 29.75 in 2.5 mi North 11.5 mph - 0.15 in Rain Heavy Rain
7:34 AM 46.4 °F 41.5 °F 46.4 °F 100% 29.73 in 3.0 mi North 10.4 mph - 0.24 in Rain Heavy Rain
7:49 AM 46.4 °F 41.9 °F 46.4 °F 100% 29.71 in 2.5 mi North 9.2 mph - 0.34 in Rain Heavy Rain
7:51 AM 46.4 °F 41.9 °F 46.4 °F 100% 29.72 in 3.0 mi North 9.2 mph - 0.35 in Rain Heavy Rain
7:57 AM 46.9 °F - 46.0 °F 97% 29.73 in 3.0 mi North 10.4 mph - 0.39 in Rain Heavy Rain
8:21 AM 46.4 °F 41.5 °F 46.4 °F 100% 29.69 in 4.0 mi NNE 10.4 mph - 0.09 in Rain Rain
8:40 AM 48.2 °F - 46.4 °F 93% 29.66 in 4.0 mi NNE 9.2 mph - 0.14 in Rain Rain
8:57 AM 48.0 °F - 46.9 °F 96% 29.67 in 2.0 mi North 6.9 mph - 0.20 in Rain Heavy Rain
9:05 AM 48.2 °F - 46.4 °F 93% 29.65 in 1.2 mi NNE 6.9 mph - 0.07 in Rain Heavy Rain
9:23 AM 48.2 °F - 48.2 °F 100% 29.67 in 3.0 mi Variable 4.6 mph - 0.11 in Rain Rain
9:57 AM 51.1 °F - 50.0 °F 96% 29.64 in 9.0 mi Calm Calm - 0.11 in Rain Light Rain
10:22 AM 51.8 °F - 50.0 °F 94% 29.65 in 10.0 mi West 6.9 mph - 0.00 in   Overcast
10:57 AM 52.0 °F - 52.0 °F 100% 29.65 in 10.0 mi WNW 4.6 mph - 0.00 in   Overcast
11:25 AM 51.8 °F - 50.0 °F 94% 29.64 in 10.0 mi WNW 8.1 mph - N/A   Overcast
11:57 AM 51.1 °F - 48.9 °F 92% 29.64 in 10.0 mi WNW 8.1 mph - N/A   Overcast
12:57 PM 48.9 °F - 46.0 °F 90% 29.65 in 10.0 mi WNW 11.5 mph 21.9 mph N/A   Overcast
1:42 PM 51.8 °F - 46.4 °F 82% 29.63 in 10.0 mi West 8.1 mph - N/A   Scattered Clouds
1:57 PM 51.1 °F - 46.0 °F 83% 29.64 in 10.0 mi West 9.2 mph - N/A   Clear
2:31 PM 53.6 °F - 46.4 °F 77% 29.64 in 10.0 mi WNW 12.7 mph 24.2 mph N/A   Mostly Cloudy
2:57 PM 51.1 °F - 45.0 °F 80% 29.68 in 10.0 mi WNW 11.5 mph 18.4 mph N/A   Overcast
3:06 PM 51.8 °F - 44.6 °F 76% 29.67 in 10.0 mi WNW 12.7 mph 23.0 mph N/A   Overcast
3:40 PM 48.2 °F - 42.8 °F 82% 29.69 in 10.0 mi WNW 11.5 mph 26.5 mph N/A   Overcast
3:57 PM 48.9 °F - 42.1 °F 77% 29.70 in 10.0 mi WNW 15.0 mph 25.3 mph N/A   Overcast
4:39 PM 48.2 °F - 42.8 °F 82% 29.70 in 10.0 mi West 10.4 mph 17.3 mph N/A   Scattered Clouds
4:57 PM 48.0 °F - 42.1 °F 80% 29.73 in 10.0 mi Variable 4.6 mph 16.1 mph N/A   Clear
5:57 PM 46.9 °F - 42.1 °F 83% 29.77 in 10.0 mi West 5.8 mph - N/A   Clear
6:57 PM 46.0 °F 43.9 °F 42.1 °F 86% 29.79 in 10.0 mi Variable 4.6 mph - N/A   Clear
7:57 PM 46.0 °F 43.9 °F 39.9 °F 79% 29.82 in 10.0 mi Variable 4.6 mph - N/A   Clear
8:57 PM 46.0 °F 43.1 °F 39.9 °F 79% 29.83 in 10.0 mi West 5.8 mph - N/A   Mostly Cloudy
9:57 PM 46.9 °F - 39.0 °F 74% 29.86 in 10.0 mi NW 9.2 mph - N/A   Scattered Clouds
10:57 PM 45.0 °F 41.8 °F 37.0 °F 74% 29.89 in 10.0 mi WNW 5.8 mph - N/A   Clear
11:57 PM 44.1 °F 41.5 °F 34.0 °F 68% 29.91 in 10.0 mi WNW 4.6 mph - N/A   Clear